owner,sensor,date,latitude,longitude,vertical_datum,wind_speed,wind_to_direction,wind_speed_of_gust,qcFlag 
TCOON,ioos:station:TCOON:005:1,2015-02-01T00:00:00Z,27.6346,-97.2370,0.0,4.1,145.0,5.5,'11111222,11111222,11111222' 
TCOON,ioos:station:TCOON:005:1,2015-02-01T00:06:00Z,27.6346,-97.2370,0.0,5.0,142.0,6.3,'11111222,11111222,11111222' 
TCOON,ioos:station:TCOON:005:1,2015-02-01T00:12:00Z,27.6346,-97.2370,0.0,4.4,141.0,5.9,'11111222,11111222,11111222' 
TCOON,ioos:station:TCOON:005:1,2015-02-01T00:18:00Z,27.6346,-97.2370,0.0,4.4,141.0,5.9,'1111122,1111122,1111122' 
TCOON,ioos:station:TCOON:005:1,2015-02-01T00:24:00Z,27.6346,-97.2370,0.0,4.0,144.0,5.8,'11111222,11111222,11111222' 
TCOON,ioos:station:TCOON:005:1,2015-02-01T00:30:00Z,27.6346,-97.2370,0.0,4.7,140.0,5.7,'11111222,11111222,11111222' 
TCOON,ioos:station:TCOON:005:1,2015-02-01T00:36:00Z,27.6346,-97.2370,0.0,4.1,145.0,5.1,'11111222,11111222,11111222' 
TCOON,ioos:station:TCOON:005:1,2015-02-01T00:42:00Z,27.6346,-97.2370,0.0,4.1,142.0,5.8,'11111222,11111222,11111222' 
TCOON,ioos:station:TCOON:005:1,2015-02-01T00:48:00Z,27.6346,-97.2370,0.0,4.2,141.0,6.0,'11111222,11111222,11111222' 
TCOON,ioos:station:TCOON:005:1,2015-02-01T00:54:00Z,27.6346,-97.2370,0.0,3.8,139.0,5.8,'11111222,11111222,11111222' 
TCOON,ioos:station:TCOON:005:1,2015-02-01T01:00:00Z,27.6346,-97.2370,0.0,5.2,141.0,6.8,'11111222,11111222,11111222' 
TCOON,ioos:station:TCOON:005:1,2015-02-01T01:06:00Z,27.6346,-97.2370,0.0,4.7,142.0,6.0,'11111222,11111222,11111222' 
TCOON,ioos:station:TCOON:005:1,2015-02-01T01:12:00Z,27.6346,-97.2370,0.0,4.7,141.0,6.3,'11111222,11111222,11111222' 
TCOON,ioos:station:TCOON:005:1,2015-02-01T01:18:00Z,27.6346,-97.2370,0.0,4.7,141.0,6.3,'1111122,1111122,1111122' 
TCOON,ioos:station:TCOON:005:1,2015-02-01T01:24:00Z,27.6346,-97.2370,0.0,4.6,145.0,6.0,'11111222,11111222,11111222' 
TCOON,ioos:station:TCOON:005:1,2015-02-01T01:30:00Z,27.6346,-97.2370,0.0,4.9,144.0,7.4,'11111222,11111222,11111222' 
TCOON,ioos:station:TCOON:005:1,2015-02-01T01:36:00Z,27.6346,-97.2370,0.0,5.7,143.0,8.2,'11111222,11111222,11111222' 
TCOON,ioos:station:TCOON:005:1,2015-02-01T01:42:00Z,27.6346,-97.2370,0.0,4.9,149.0,6.8,'11111222,11111222,11111222' 
TCOON,ioos:station:TCOON:005:1,2015-02-01T01:48:00Z,27.6346,-97.2370,0.0,5.3,152.0,7.2,'11111222,11111222,11111222' 
TCOON,ioos:station:TCOON:005:1,2015-02-01T01:54:00Z,27.6346,-97.2370,0.0,4.6,154.0,6.8,'11111222,11111222,11111222' 
TCOON,ioos:station:TCOON:005:1,2015-02-01T02:00:00Z,27.6346,-97.2370,0.0,4.4,153.0,6.1,'11111222,11111222,11111222' 
TCOON,ioos:station:TCOON:005:1,2015-02-01T02:06:00Z,27.6346,-97.2370,0.0,4.3,153.0,5.9,'11111222,11111222,11111222' 
TCOON,ioos:station:TCOON:005:1,2015-02-01T02:12:00Z,27.6346,-97.2370,0.0,3.8,157.0,5.7,'11111222,11111222,11111222' 
TCOON,ioos:station:TCOON:005:1,2015-02-01T02:18:00Z,27.6346,-97.2370,0.0,3.8,157.0,5.7,'1111122,1111122,1111122' 
TCOON,ioos:station:TCOON:005:1,2015-02-01T02:24:00Z,27.6346,-97.2370,0.0,4.3,153.0,6.1,'11111222,11111222,11111222' 
TCOON,ioos:station:TCOON:005:1,2015-02-01T02:30:00Z,27.6346,-97.2370,0.0,5.1,149.0,6.2,'11111222,11111222,11111222' 
TCOON,ioos:station:TCOON:005:1,2015-02-01T02:36:00Z,27.6346,-97.2370,0.0,5.6,147.0,8.2,'11111222,11111222,11111222' 
TCOON,ioos:station:TCOON:005:1,2015-02-01T02:42:00Z,27.6346,-97.2370,0.0,5.0,148.0,6.9,'11111222,11111222,11111222' 
TCOON,ioos:station:TCOON:005:1,2015-02-01T02:48:00Z,27.6346,-97.2370,0.0,5.8,147.0,7.2,'11111222,11111222,11111222' 
TCOON,ioos:station:TCOON:005:1,2015-02-01T02:54:00Z,27.6346,-97.2370,0.0,5.1,145.0,7.4,'11111222,11111222,11111222' 
TCOON,ioos:station:TCOON:005:1,2015-02-01T03:00:00Z,27.6346,-97.2370,0.0,5.4,148.0,7.0,'11111222,11111222,11111222' 
TCOON,ioos:station:TCOON:005:1,2015-02-01T03:06:00Z,27.6346,-97.2370,0.0,5.9,150.0,7.5,'11111222,11111222,11111222' 
TCOON,ioos:station:TCOON:005:1,2015-02-01T03:12:00Z,27.6346,-97.2370,0.0,5.6,150.0,7.7,'11111222,11111222,11111222' 
TCOON,ioos:station:TCOON:005:1,2015-02-01T03:18:00Z,27.6346,-97.2370,0.0,5.6,150.0,7.7,'1111122,1111122,1111122' 
TCOON,ioos:station:TCOON:005:1,2015-02-01T03:24:00Z,27.6346,-97.2370,0.0,6.3,147.0,8.3,'11111222,11111222,11111222' 
TCOON,ioos:station:TCOON:005:1,2015-02-01T03:30:00Z,27.6346,-97.2370,0.0,5.9,144.0,8.8,'11111222,11111222,11111222' 
TCOON,ioos:station:TCOON:005:1,2015-02-01T03:36:00Z,27.6346,-97.2370,0.0,6.8,141.0,8.2,'11111222,11111222,11111222' 
TCOON,ioos:station:TCOON:005:1,2015-02-01T03:42:00Z,27.6346,-97.2370,0.0,7.0,142.0,9.2,'11111222,11111222,11111222' 
TCOON,ioos:station:TCOON:005:1,2015-02-01T03:48:00Z,27.6346,-97.2370,0.0,7.0,142.0,9.5,'11111222,11111222,11111222' 
TCOON,ioos:station:TCOON:005:1,2015-02-01T03:54:00Z,27.6346,-97.2370,0.0,6.9,145.0,9.8,'11111222,11111222,11111222' 
TCOON,ioos:station:TCOON:005:1,2015-02-01T04:00:00Z,27.6346,-97.2370,0.0,7.0,145.0,8.9,'11111222,11111222,11111222' 
TCOON,ioos:station:TCOON:005:1,2015-02-01T04:06:00Z,27.6346,-97.2370,0.0,8.0,142.0,10.0,'11111222,11111222,11111222' 
TCOON,ioos:station:TCOON:005:1,2015-02-01T04:12:00Z,27.6346,-97.2370,0.0,8.0,142.0,10.0,'1111122,1111122,1111122' 
TCOON,ioos:station:TCOON:005:1,2015-02-01T04:18:00Z,27.6346,-97.2370,0.0,8.2,146.0,11.3,'11111222,11111222,11111222' 
TCOON,ioos:station:TCOON:005:1,2015-02-01T04:24:00Z,27.6346,-97.2370,0.0,9.5,143.0,12.2,'11111222,11111222,11111222' 
TCOON,ioos:station:TCOON:005:1,2015-02-01T04:30:00Z,27.6346,-97.2370,0.0,9.1,147.0,12.6,'11111222,11111222,11111222' 
TCOON,ioos:station:TCOON:005:1,2015-02-01T04:36:00Z,27.6346,-97.2370,0.0,9.6,141.0,12.4,'11111222,11111222,11111222' 
TCOON,ioos:station:TCOON:005:1,2015-02-01T04:42:00Z,27.6346,-97.2370,0.0,8.1,149.0,12.0,'11111222,11111222,11111222' 
TCOON,ioos:station:TCOON:005:1,2015-02-01T04:48:00Z,27.6346,-97.2370,0.0,8.6,146.0,11.7,'11111222,11111222,11111222' 
TCOON,ioos:station:TCOON:005:1,2015-02-01T04:54:00Z,27.6346,-97.2370,0.0,8.9,146.0,11.9,'11111222,11111222,11111222' 
TCOON,ioos:station:TCOON:005:1,2015-02-01T05:00:00Z,27.6346,-97.2370,0.0,9.7,144.0,13.7,'11111222,11111222,11111222' 
TCOON,ioos:station:TCOON:005:1,2015-02-01T05:06:00Z,27.6346,-97.2370,0.0,10.5,144.0,12.9,'11111222,11111222,11111222' 
TCOON,ioos:station:TCOON:005:1,2015-02-01T05:12:00Z,27.6346,-97.2370,0.0,7.7,147.0,11.6,'11111222,11111222,11111222' 
TCOON,ioos:station:TCOON:005:1,2015-02-01T05:18:00Z,27.6346,-97.2370,0.0,7.7,147.0,11.6,'1111122,1111122,1111122' 
TCOON,ioos:station:TCOON:005:1,2015-02-01T05:24:00Z,27.6346,-97.2370,0.0,9.1,143.0,13.2,'11111222,11111222,11111222' 
TCOON,ioos:station:TCOON:005:1,2015-02-01T05:30:00Z,27.6346,-97.2370,0.0,9.0,142.0,12.0,'11111222,11111222,11111222' 
TCOON,ioos:station:TCOON:005:1,2015-02-01T05:36:00Z,27.6346,-97.2370,0.0,9.0,144.0,12.5,'11111222,11111222,11111222' 
TCOON,ioos:station:TCOON:005:1,2015-02-01T05:42:00Z,27.6346,-97.2370,0.0,8.5,146.0,12.3,'11111222,11111222,11111222' 
TCOON,ioos:station:TCOON:005:1,2015-02-01T05:48:00Z,27.6346,-97.2370,0.0,7.1,155.0,11.0,'11111222,11111222,11111222' 
TCOON,ioos:station:TCOON:005:1,2015-02-01T05:54:00Z,27.6346,-97.2370,0.0,6.9,154.0,9.2,'11111222,11111222,11111222' 
TCOON,ioos:station:TCOON:005:1,2015-02-01T06:00:00Z,27.6346,-97.2370,0.0,7.0,154.0,9.8,'11111222,11111222,11111222' 
TCOON,ioos:station:TCOON:005:1,2015-02-01T06:06:00Z,27.6346,-97.2370,0.0,6.9,157.0,9.4,'11111222,11111222,11111222' 
TCOON,ioos:station:TCOON:005:1,2015-02-01T06:12:00Z,27.6346,-97.2370,0.0,5.7,165.0,7.9,'11111222,11111222,11111222' 
TCOON,ioos:station:TCOON:005:1,2015-02-01T06:18:00Z,27.6346,-97.2370,0.0,5.7,165.0,7.9,'1111122,1111122,1111122' 
TCOON,ioos:station:TCOON:005:1,2015-02-01T06:24:00Z,27.6346,-97.2370,0.0,5.6,166.0,7.6,'11111222,11111222,11111222' 
TCOON,ioos:station:TCOON:005:1,2015-02-01T06:30:00Z,27.6346,-97.2370,0.0,5.0,183.0,6.9,'11111222,11111222,11111222' 
TCOON,ioos:station:TCOON:005:1,2015-02-01T06:36:00Z,27.6346,-97.2370,0.0,5.2,196.0,6.8,'11111222,11111222,11111222' 
TCOON,ioos:station:TCOON:005:1,2015-02-01T06:42:00Z,27.6346,-97.2370,0.0,5.0,180.0,6.2,'11111222,11111222,11111222' 
TCOON,ioos:station:TCOON:005:1,2015-02-01T06:48:00Z,27.6346,-97.2370,0.0,5.1,185.0,6.4,'11111222,11111222,11111222' 
TCOON,ioos:station:TCOON:005:1,2015-02-01T06:54:00Z,27.6346,-97.2370,0.0,5.2,187.0,6.6,'11111222,11111222,11111222' 
TCOON,ioos:station:TCOON:005:1,2015-02-01T07:00:00Z,27.6346,-97.2370,0.0,5.2,177.0,7.1,'11111222,11111222,11111222' 
TCOON,ioos:station:TCOON:005:1,2015-02-01T07:06:00Z,27.6346,-97.2370,0.0,5.8,181.0,8.9,'11111222,11111222,11111222' 
TCOON,ioos:station:TCOON:005:1,2015-02-01T07:12:00Z,27.6346,-97.2370,0.0,5.9,191.0,7.1,'11111222,11111222,11111222' 
TCOON,ioos:station:TCOON:005:1,2015-02-01T07:18:00Z,27.6346,-97.2370,0.0,5.9,191.0,7.1,'1111122,1111122,1111122' 
TCOON,ioos:station:TCOON:005:1,2015-02-01T07:24:00Z,27.6346,-97.2370,0.0,5.9,196.0,7.3,'11111222,11111222,11111222' 
TCOON,ioos:station:TCOON:005:1,2015-02-01T07:30:00Z,27.6346,-97.2370,0.0,6.4,187.0,8.0,'11111222,11111222,11111222' 
TCOON,ioos:station:TCOON:005:1,2015-02-01T07:36:00Z,27.6346,-97.2370,0.0,6.1,180.0,8.9,'11111222,11111222,11111222' 
TCOON,ioos:station:TCOON:005:1,2015-02-01T07:42:00Z,27.6346,-97.2370,0.0,6.2,184.0,8.1,'11111222,11111222,11111222' 
TCOON,ioos:station:TCOON:005:1,2015-02-01T07:48:00Z,27.6346,-97.2370,0.0,5.7,180.0,7.5,'11111222,11111222,11111222' 
TCOON,ioos:station:TCOON:005:1,2015-02-01T07:54:00Z,27.6346,-97.2370,0.0,5.7,173.0,8.2,'11111222,11111222,11111222' 
TCOON,ioos:station:TCOON:005:1,2015-02-01T08:00:00Z,27.6346,-97.2370,0.0,5.6,174.0,8.2,'11111222,11111222,11111222' 
TCOON,ioos:station:TCOON:005:1,2015-02-01T08:06:00Z,27.6346,-97.2370,0.0,5.1,182.0,7.0,'11111222,11111222,11111222' 
TCOON,ioos:station:TCOON:005:1,2015-02-01T08:12:00Z,27.6346,-97.2370,0.0,5.5,191.0,6.2,'11111222,11111222,11111222' 
TCOON,ioos:station:TCOON:005:1,2015-02-01T08:18:00Z,27.6346,-97.2370,0.0,5.5,191.0,6.2,'1111122,1111122,1111122' 
TCOON,ioos:station:TCOON:005:1,2015-02-01T08:24:00Z,27.6346,-97.2370,0.0,4.6,197.0,7.0,'11111222,11111222,11111222' 
TCOON,ioos:station:TCOON:005:1,2015-02-01T08:30:00Z,27.6346,-97.2370,0.0,5.2,190.0,5.8,'11111222,11111222,11111222' 
TCOON,ioos:station:TCOON:005:1,2015-02-01T08:36:00Z,27.6346,-97.2370,0.0,5.4,183.0,6.3,'11111222,11111222,11111222' 
TCOON,ioos:station:TCOON:005:1,2015-02-01T08:42:00Z,27.6346,-97.2370,0.0,5.8,179.0,7.0,'11111222,11111222,11111222' 
TCOON,ioos:station:TCOON:005:1,2015-02-01T08:48:00Z,27.6346,-97.2370,0.0,5.7,182.0,7.4,'11111222,11111222,11111222' 
TCOON,ioos:station:TCOON:005:1,2015-02-01T08:54:00Z,27.6346,-97.2370,0.0,5.1,182.0,7.6,'11111222,11111222,11111222' 
TCOON,ioos:station:TCOON:005:1,2015-02-01T09:00:00Z,27.6346,-97.2370,0.0,5.1,183.0,7.3,'11111222,11111222,11111222' 
TCOON,ioos:station:TCOON:005:1,2015-02-01T09:06:00Z,27.6346,-97.2370,0.0,4.8,179.0,6.4,'11111222,11111222,11111222' 
TCOON,ioos:station:TCOON:005:1,2015-02-01T09:12:00Z,27.6346,-97.2370,0.0,4.0,182.0,5.5,'11111222,11111222,11111222' 
TCOON,ioos:station:TCOON:005:1,2015-02-01T09:18:00Z,27.6346,-97.2370,0.0,4.0,182.0,5.5,'1111122,1111122,1111122' 
TCOON,ioos:station:TCOON:005:1,2015-02-01T09:24:00Z,27.6346,-97.2370,0.0,3.9,179.0,4.7,'11111222,11111222,11111222' 
TCOON,ioos:station:TCOON:005:1,2015-02-01T09:30:00Z,27.6346,-97.2370,0.0,3.9,185.0,4.4,'11111222,11111222,11111222' 
TCOON,ioos:station:TCOON:005:1,2015-02-01T09:36:00Z,27.6346,-97.2370,0.0,3.7,187.0,4.8,'11111222,11111222,11111222' 
TCOON,ioos:station:TCOON:005:1,2015-02-01T09:42:00Z,27.6346,-97.2370,0.0,4.1,198.0,4.8,'11111222,11111222,11111222' 
TCOON,ioos:station:TCOON:005:1,2015-02-01T09:48:00Z,27.6346,-97.2370,0.0,3.9,196.0,4.3,'11111222,11111222,11111222' 
TCOON,ioos:station:TCOON:005:1,2015-02-01T09:54:00Z,27.6346,-97.2370,0.0,4.0,184.0,4.6,'11111222,11111222,11111222' 
TCOON,ioos:station:TCOON:005:1,2015-02-01T10:00:00Z,27.6346,-97.2370,0.0,3.7,176.0,4.7,'11111222,11111222,11111222' 
TCOON,ioos:station:TCOON:005:1,2015-02-01T10:06:00Z,27.6346,-97.2370,0.0,3.2,179.0,4.4,'11111222,11111222,11111222' 
TCOON,ioos:station:TCOON:005:1,2015-02-01T10:12:00Z,27.6346,-97.2370,0.0,3.2,179.0,4.4,'1111122,1111122,1111122' 
TCOON,ioos:station:TCOON:005:1,2015-02-01T10:18:00Z,27.6346,-97.2370,0.0,3.4,187.0,3.9,'11111222,11111222,11111222' 
TCOON,ioos:station:TCOON:005:1,2015-02-01T10:24:00Z,27.6346,-97.2370,0.0,3.1,187.0,4.1,'11111222,11111222,11111222' 
TCOON,ioos:station:TCOON:005:1,2015-02-01T10:30:00Z,27.6346,-97.2370,0.0,2.6,184.0,3.5,'11111222,11111222,11111222' 
TCOON,ioos:station:TCOON:005:1,2015-02-01T10:36:00Z,27.6346,-97.2370,0.0,2.6,169.0,3.0,'11111222,11111222,11111222' 
TCOON,ioos:station:TCOON:005:1,2015-02-01T10:42:00Z,27.6346,-97.2370,0.0,2.6,179.0,3.1,'11111222,11111222,11111222' 
TCOON,ioos:station:TCOON:005:1,2015-02-01T10:48:00Z,27.6346,-97.2370,0.0,2.2,172.0,3.0,'11111222,11111222,11111222' 
TCOON,ioos:station:TCOON:005:1,2015-02-01T10:54:00Z,27.6346,-97.2370,0.0,2.1,158.0,2.8,'11111222,11111222,11111222' 
TCOON,ioos:station:TCOON:005:1,2015-02-01T11:00:00Z,27.6346,-97.2370,0.0,1.9,149.0,2.4,'11111222,11111222,11111222' 
TCOON,ioos:station:TCOON:005:1,2015-02-01T11:06:00Z,27.6346,-97.2370,0.0,1.8,147.0,2.4,'11111222,11111222,11111222' 
TCOON,ioos:station:TCOON:005:1,2015-02-01T11:12:00Z,27.6346,-97.2370,0.0,1.6,147.0,2.7,'11111222,11111222,11111222' 
TCOON,ioos:station:TCOON:005:1,2015-02-01T11:18:00Z,27.6346,-97.2370,0.0,1.6,147.0,2.7,'1111122,1111122,1111122' 
TCOON,ioos:station:TCOON:005:1,2015-02-01T11:24:00Z,27.6346,-97.2370,0.0,1.5,151.0,2.0,'11111222,11111222,11111222' 
TCOON,ioos:station:TCOON:005:1,2015-02-01T11:30:00Z,27.6346,-97.2370,0.0,2.2,156.0,2.6,'11111222,11111222,11111222' 
TCOON,ioos:station:TCOON:005:1,2015-02-01T11:36:00Z,27.6346,-97.2370,0.0,2.1,162.0,2.6,'11111222,11111222,11111222' 
TCOON,ioos:station:TCOON:005:1,2015-02-01T11:42:00Z,27.6346,-97.2370,0.0,2.1,169.0,2.8,'11111222,11111222,11111222' 
TCOON,ioos:station:TCOON:005:1,2015-02-01T11:48:00Z,27.6346,-97.2370,0.0,2.2,182.0,2.8,'11111222,11111222,11111222' 
TCOON,ioos:station:TCOON:005:1,2015-02-01T11:54:00Z,27.6346,-97.2370,0.0,1.6,185.0,2.9,'11111222,11111222,11111222' 
TCOON,ioos:station:TCOON:005:1,2015-02-01T12:00:00Z,27.6346,-97.2370,0.0,1.2,183.0,1.9,'11111222,11111222,11111222' 
TCOON,ioos:station:TCOON:005:1,2015-02-01T12:06:00Z,27.6346,-97.2370,0.0,0.6,182.0,1.4,'11111222,11111222,11111222' 
TCOON,ioos:station:TCOON:005:1,2015-02-01T12:12:00Z,27.6346,-97.2370,0.0,0.9,141.0,1.1,'11111222,11111222,11111222' 
TCOON,ioos:station:TCOON:005:1,2015-02-01T12:18:00Z,27.6346,-97.2370,0.0,0.9,141.0,1.1,'1111122,1111122,1111122' 
TCOON,ioos:station:TCOON:005:1,2015-02-01T12:24:00Z,27.6346,-97.2370,0.0,1.5,90.0,1.7,'11111222,11111222,11111222' 
TCOON,ioos:station:TCOON:005:1,2015-02-01T12:30:00Z,27.6346,-97.2370,0.0,1.2,67.0,1.3,'11111222,11111222,11111222' 
TCOON,ioos:station:TCOON:005:1,2015-02-01T12:36:00Z,27.6346,-97.2370,0.0,1.6,104.0,1.8,'11111222,11111222,11111222' 
TCOON,ioos:station:TCOON:005:1,2015-02-01T12:42:00Z,27.6346,-97.2370,0.0,1.0,97.0,1.7,'11111222,11111222,11111222' 
TCOON,ioos:station:TCOON:005:1,2015-02-01T12:48:00Z,27.6346,-97.2370,0.0,0.9,71.0,1.2,'11111222,11111222,11111222' 
TCOON,ioos:station:TCOON:005:1,2015-02-01T12:54:00Z,27.6346,-97.2370,0.0,1.7,76.0,1.8,'11111222,11111222,11111222' 
TCOON,ioos:station:TCOON:005:1,2015-02-01T13:00:00Z,27.6346,-97.2370,0.0,2.1,95.0,2.3,'11111222,11111222,11111222' 
TCOON,ioos:station:TCOON:005:1,2015-02-01T13:06:00Z,27.6346,-97.2370,0.0,1.9,107.0,2.2,'11111222,11111222,11111222' 
TCOON,ioos:station:TCOON:005:1,2015-02-01T13:12:00Z,27.6346,-97.2370,0.0,1.8,108.0,1.9,'11111222,11111222,11111222' 
TCOON,ioos:station:TCOON:005:1,2015-02-01T13:18:00Z,27.6346,-97.2370,0.0,1.8,108.0,1.9,'1111122,1111122,1111122' 
TCOON,ioos:station:TCOON:005:1,2015-02-01T13:24:00Z,27.6346,-97.2370,0.0,2.5,122.0,2.6,'11111222,11111222,11111222' 
TCOON,ioos:station:TCOON:005:1,2015-02-01T13:30:00Z,27.6346,-97.2370,0.0,2.2,126.0,2.9,'11111222,11111222,11111222' 
TCOON,ioos:station:TCOON:005:1,2015-02-01T13:36:00Z,27.6346,-97.2370,0.0,1.5,134.0,2.3,'11111222,11111222,11111222' 
TCOON,ioos:station:TCOON:005:1,2015-02-01T13:42:00Z,27.6346,-97.2370,0.0,1.1,116.0,1.6,'11111222,11111222,11111222' 
TCOON,ioos:station:TCOON:005:1,2015-02-01T13:48:00Z,27.6346,-97.2370,0.0,1.2,112.0,1.4,'11111222,11111222,11111222' 
TCOON,ioos:station:TCOON:005:1,2015-02-01T13:54:00Z,27.6346,-97.2370,0.0,0.8,109.0,1.6,'11111222,11111222,11111222' 
TCOON,ioos:station:TCOON:005:1,2015-02-01T14:00:00Z,27.6346,-97.2370,0.0,1.8,107.0,1.9,'11111222,11111222,11111222' 
TCOON,ioos:station:TCOON:005:1,2015-02-01T14:06:00Z,27.6346,-97.2370,0.0,1.6,102.0,2.1,'11111222,11111222,11111222' 
TCOON,ioos:station:TCOON:005:1,2015-02-01T14:12:00Z,27.6346,-97.2370,0.0,0.9,80.0,1.4,'11111222,11111222,11111222' 
TCOON,ioos:station:TCOON:005:1,2015-02-01T14:18:00Z,27.6346,-97.2370,0.0,0.9,80.0,1.4,'1111122,1111122,1111122' 
TCOON,ioos:station:TCOON:005:1,2015-02-01T14:24:00Z,27.6346,-97.2370,0.0,1.8,114.0,1.9,'11111222,11111222,11111222' 
TCOON,ioos:station:TCOON:005:1,2015-02-01T14:30:00Z,27.6346,-97.2370,0.0,2.2,120.0,2.3,'11111222,11111222,11111222' 
TCOON,ioos:station:TCOON:005:1,2015-02-01T14:36:00Z,27.6346,-97.2370,0.0,1.2,138.0,2.1,'11111222,11111222,11111222' 
TCOON,ioos:station:TCOON:005:1,2015-02-01T14:42:00Z,27.6346,-97.2370,0.0,1.4,157.0,1.8,'11111222,11111222,11111222' 
TCOON,ioos:station:TCOON:005:1,2015-02-01T14:48:00Z,27.6346,-97.2370,0.0,1.3,151.0,2.0,'11111222,11111222,11111222' 
TCOON,ioos:station:TCOON:005:1,2015-02-01T14:54:00Z,27.6346,-97.2370,0.0,2.0,149.0,2.4,'11111222,11111222,11111222' 
TCOON,ioos:station:TCOON:005:1,2015-02-01T15:00:00Z,27.6346,-97.2370,0.0,2.2,155.0,2.8,'11111222,11111222,11111222' 
TCOON,ioos:station:TCOON:005:1,2015-02-01T15:06:00Z,27.6346,-97.2370,0.0,3.0,158.0,3.6,'11111222,11111222,11111222' 
TCOON,ioos:station:TCOON:005:1,2015-02-01T15:12:00Z,27.6346,-97.2370,0.0,3.0,158.0,3.6,'1111122,1111122,1111122' 
TCOON,ioos:station:TCOON:005:1,2015-02-01T15:18:00Z,27.6346,-97.2370,0.0,2.6,190.0,3.2,'11111222,11111222,11111222' 
TCOON,ioos:station:TCOON:005:1,2015-02-01T15:24:00Z,27.6346,-97.2370,0.0,2.1,189.0,2.8,'11111222,11111222,11111222' 
TCOON,ioos:station:TCOON:005:1,2015-02-01T15:30:00Z,27.6346,-97.2370,0.0,2.2,175.0,2.9,'11111222,11111222,11111222' 
TCOON,ioos:station:TCOON:005:1,2015-02-01T15:36:00Z,27.6346,-97.2370,0.0,2.4,175.0,3.0,'11111222,11111222,11111222' 
TCOON,ioos:station:TCOON:005:1,2015-02-01T15:42:00Z,27.6346,-97.2370,0.0,2.3,163.0,3.5,'11111222,11111222,11111222' 
TCOON,ioos:station:TCOON:005:1,2015-02-01T15:48:00Z,27.6346,-97.2370,0.0,2.8,168.0,3.8,'11111222,11111222,11111222' 
TCOON,ioos:station:TCOON:005:1,2015-02-01T15:54:00Z,27.6346,-97.2370,0.0,3.0,140.0,3.9,'11111222,11111222,11111222' 
TCOON,ioos:station:TCOON:005:1,2015-02-01T16:00:00Z,27.6346,-97.2370,0.0,3.0,143.0,4.0,'11111222,11111222,11111222' 
TCOON,ioos:station:TCOON:005:1,2015-02-01T16:06:00Z,27.6346,-97.2370,0.0,2.8,144.0,3.4,'11111222,11111222,11111222' 
TCOON,ioos:station:TCOON:005:1,2015-02-01T16:12:00Z,27.6346,-97.2370,0.0,2.6,154.0,3.3,'11111222,11111222,11111222' 
TCOON,ioos:station:TCOON:005:1,2015-02-01T16:18:00Z,27.6346,-97.2370,0.0,2.6,154.0,3.3,'1111122,1111122,1111122' 
TCOON,ioos:station:TCOON:005:1,2015-02-01T16:24:00Z,27.6346,-97.2370,0.0,2.8,156.0,3.8,'11111222,11111222,11111222' 
TCOON,ioos:station:TCOON:005:1,2015-02-01T16:30:00Z,27.6346,-97.2370,0.0,3.0,153.0,4.0,'11111222,11111222,11111222' 
TCOON,ioos:station:TCOON:005:1,2015-02-01T16:36:00Z,27.6346,-97.2370,0.0,2.8,156.0,4.6,'11111222,11111222,11111222' 
TCOON,ioos:station:TCOON:005:1,2015-02-01T16:42:00Z,27.6346,-97.2370,0.0,2.6,144.0,4.4,'11111222,11111222,11111222' 
TCOON,ioos:station:TCOON:005:1,2015-02-01T16:48:00Z,27.6346,-97.2370,0.0,3.1,150.0,4.2,'11111222,11111222,11111222' 
TCOON,ioos:station:TCOON:005:1,2015-02-01T16:54:00Z,27.6346,-97.2370,0.0,2.6,162.0,4.2,'11111222,11111222,11111222' 
TCOON,ioos:station:TCOON:005:1,2015-02-01T17:00:00Z,27.6346,-97.2370,0.0,3.0,167.0,3.9,'11111222,11111222,11111222' 
TCOON,ioos:station:TCOON:005:1,2015-02-01T17:06:00Z,27.6346,-97.2370,0.0,3.0,160.0,3.7,'11111222,11111222,11111222' 
TCOON,ioos:station:TCOON:005:1,2015-02-01T17:12:00Z,27.6346,-97.2370,0.0,3.2,157.0,4.0,'11111222,11111222,11111222' 
TCOON,ioos:station:TCOON:005:1,2015-02-01T17:18:00Z,27.6346,-97.2370,0.0,3.2,157.0,4.0,'1111122,1111122,1111122' 
TCOON,ioos:station:TCOON:005:1,2015-02-01T17:24:00Z,27.6346,-97.2370,0.0,2.9,141.0,3.7,'11111222,11111222,11111222' 
TCOON,ioos:station:TCOON:005:1,2015-02-01T17:30:00Z,27.6346,-97.2370,0.0,2.7,148.0,3.9,'11111222,11111222,11111222' 
TCOON,ioos:station:TCOON:005:1,2015-02-01T17:36:00Z,27.6346,-97.2370,0.0,2.9,159.0,3.9,'11111222,11111222,11111222' 
TCOON,ioos:station:TCOON:005:1,2015-02-01T17:42:00Z,27.6346,-97.2370,0.0,3.2,136.0,4.3,'11111222,11111222,11111222' 
TCOON,ioos:station:TCOON:005:1,2015-02-01T17:48:00Z,27.6346,-97.2370,0.0,2.9,141.0,4.9,'11111222,11111222,11111222' 
TCOON,ioos:station:TCOON:005:1,2015-02-01T17:54:00Z,27.6346,-97.2370,0.0,3.3,142.0,4.2,'11111222,11111222,11111222' 
TCOON,ioos:station:TCOON:005:1,2015-02-01T18:00:00Z,27.6346,-97.2370,0.0,3.1,152.0,4.7,'11111222,11111222,11111222' 
TCOON,ioos:station:TCOON:005:1,2015-02-01T18:06:00Z,27.6346,-97.2370,0.0,2.7,151.0,3.8,'11111222,11111222,11111222' 
TCOON,ioos:station:TCOON:005:1,2015-02-01T18:12:00Z,27.6346,-97.2370,0.0,3.4,164.0,4.4,'11111222,11111222,11111222' 
TCOON,ioos:station:TCOON:005:1,2015-02-01T18:18:00Z,27.6346,-97.2370,0.0,3.4,164.0,4.4,'1111122,1111122,1111122' 
TCOON,ioos:station:TCOON:005:1,2015-02-01T18:24:00Z,27.6346,-97.2370,0.0,2.8,188.0,4.9,'11111222,11111222,11111222' 
TCOON,ioos:station:TCOON:005:1,2015-02-01T18:30:00Z,27.6346,-97.2370,0.0,3.7,156.0,4.8,'11111222,11111222,11111222' 
TCOON,ioos:station:TCOON:005:1,2015-02-01T18:36:00Z,27.6346,-97.2370,0.0,3.9,137.0,4.8,'11111222,11111222,11111222' 
TCOON,ioos:station:TCOON:005:1,2015-02-01T18:42:00Z,27.6346,-97.2370,0.0,3.1,169.0,4.4,'11111222,11111222,11111222' 
TCOON,ioos:station:TCOON:005:1,2015-02-01T18:48:00Z,27.6346,-97.2370,0.0,3.1,147.0,4.1,'11111222,11111222,11111222' 
TCOON,ioos:station:TCOON:005:1,2015-02-01T18:54:00Z,27.6346,-97.2370,0.0,3.7,138.0,4.6,'11111222,11111222,11111222' 
TCOON,ioos:station:TCOON:005:1,2015-02-01T19:00:00Z,27.6346,-97.2370,0.0,4.9,121.0,6.1,'11111222,11111222,11111222' 
TCOON,ioos:station:TCOON:005:1,2015-02-01T19:06:00Z,27.6346,-97.2370,0.0,4.4,130.0,5.9,'11111222,11111222,11111222' 
TCOON,ioos:station:TCOON:005:1,2015-02-01T19:12:00Z,27.6346,-97.2370,0.0,3.9,142.0,5.6,'11111222,11111222,11111222' 
TCOON,ioos:station:TCOON:005:1,2015-02-01T19:18:00Z,27.6346,-97.2370,0.0,3.9,142.0,5.6,'1111122,1111122,1111122' 
TCOON,ioos:station:TCOON:005:1,2015-02-01T19:24:00Z,27.6346,-97.2370,0.0,4.0,143.0,5.2,'11111222,11111222,11111222' 
TCOON,ioos:station:TCOON:005:1,2015-02-01T19:30:00Z,27.6346,-97.2370,0.0,5.0,127.0,5.4,'11111222,11111222,11111222' 
TCOON,ioos:station:TCOON:005:1,2015-02-01T19:36:00Z,27.6346,-97.2370,0.0,4.2,125.0,5.4,'11111222,11111222,11111222' 
TCOON,ioos:station:TCOON:005:1,2015-02-01T19:42:00Z,27.6346,-97.2370,0.0,4.6,138.0,5.3,'11111222,11111222,11111222' 
TCOON,ioos:station:TCOON:005:1,2015-02-01T19:48:00Z,27.6346,-97.2370,0.0,4.8,142.0,6.2,'11111222,11111222,11111222' 
TCOON,ioos:station:TCOON:005:1,2015-02-01T19:54:00Z,27.6346,-97.2370,0.0,5.1,130.0,6.4,'11111222,11111222,11111222' 
TCOON,ioos:station:TCOON:005:1,2015-02-01T20:00:00Z,27.6346,-97.2370,0.0,4.6,139.0,6.2,'11111222,11111222,11111222' 
TCOON,ioos:station:TCOON:005:1,2015-02-01T20:06:00Z,27.6346,-97.2370,0.0,4.2,141.0,5.6,'11111222,11111222,11111222' 
TCOON,ioos:station:TCOON:005:1,2015-02-01T20:12:00Z,27.6346,-97.2370,0.0,4.4,138.0,5.4,'11111222,11111222,11111222' 
TCOON,ioos:station:TCOON:005:1,2015-02-01T20:18:00Z,27.6346,-97.2370,0.0,4.4,138.0,5.4,'1111122,1111122,1111122' 